Location: Atherton
(17.2661°S, 145.4859°E)
Time: 00:06:29
(UTC+10:00)

Vanguard 1 - Pass Details

Date: 30 June 2025
Orbit: 649 x 3822 km, 34.2° (Epoch: 17 July)

Event Time Altitude Azimuth Distance (km) Brightness Sun altitude
Rises 17:42:43 0° 291° (WNW) 7,955 18.1 1.9°
Reaches altitude 10° 17:48:25 10° 288° (WNW) 6,879 16.6 0.6°
Maximum altitude 18:10:29 64° 209° (SSW) 3,132 12.7 -4.2°
Drops below altitude 10° 18:23:45 10° 128° (SE) 4,397 12.8 -7.1°
Enters shadow 18:24:41 - 126° (SE) 4,609 12.9 -7.3°
Sets 18:26:33 0° 124° (SE) 5,061 - -7.7°
